Time,TemperatureF,DewpointF,PressureIn,WindDirection,WindDirectionDegrees,WindSpeedMPH,WindSpeedGustMPH,Humidity,HourlyPrecipIn,Conditions,Clouds,dailyrainin,SoftwareType,DateUTC
2013-04-24 00:02:00,13.0,7.0,-100.00,West,265,3.0,8.0,76,-99.99,,,-99.99,,2013-04-24 06:02:00,
2013-04-24 00:12:00,13.0,7.0,-100.00,West,265,3.0,8.0,76,-99.99,,,-99.99,,2013-04-24 06:12:00,
2013-04-24 00:21:00,13.0,7.0,-100.00,West,260,2.0,8.0,74,-99.99,,,-99.99,,2013-04-24 06:21:00,
2013-04-24 00:32:00,13.0,7.0,-100.00,West,260,2.0,8.0,74,-99.99,,,-99.99,,2013-04-24 06:32:00,
2013-04-24 00:42:00,12.0,6.0,-100.00,West,265,2.0,6.0,76,-99.99,,,-99.99,,2013-04-24 06:42:00,
2013-04-24 00:52:00,12.0,6.0,-100.00,West,265,2.0,6.0,76,-99.99,,,-99.99,,2013-04-24 06:52:00,
2013-04-24 01:02:00,13.0,7.0,-100.00,West,265,4.0,6.0,76,-99.99,,,-99.99,,2013-04-24 07:02:00,
2013-04-24 01:11:00,13.0,7.0,-100.00,West,265,4.0,6.0,76,-99.99,,,-99.99,,2013-04-24 07:11:00,
2013-04-24 01:22:00,15.0,8.0,-100.00,WSW,250,2.0,14.0,72,-99.99,,,-99.99,,2013-04-24 07:22:00,
2013-04-24 01:32:00,15.0,8.0,-100.00,WSW,250,2.0,14.0,72,-99.99,,,-99.99,,2013-04-24 07:32:00,
2013-04-24 01:42:00,17.0,8.0,-100.00,SW,230,7.0,17.0,67,-99.99,,,-99.99,,2013-04-24 07:42:00,
2013-04-24 01:52:00,17.0,8.0,-100.00,SW,230,7.0,17.0,67,-99.99,,,-99.99,,2013-04-24 07:52:00,
2013-04-24 02:02:00,18.0,8.0,-100.00,SW,215,7.0,18.0,63,-99.99,,,-99.99,,2013-04-24 08:02:00,
2013-04-24 02:12:00,18.0,8.0,-100.00,SW,215,7.0,18.0,63,-99.99,,,-99.99,,2013-04-24 08:12:00,
2013-04-24 02:21:00,17.0,7.0,-100.00,SW,215,6.0,16.0,63,-99.99,,,-99.99,,2013-04-24 08:21:00,
2013-04-24 02:33:00,17.0,7.0,-100.00,SW,215,6.0,16.0,63,-99.99,,,-99.99,,2013-04-24 08:33:00,
2013-04-24 02:42:00,17.0,7.0,-100.00,SSW,210,7.0,17.0,62,-99.99,,,-99.99,,2013-04-24 08:42:00,
2013-04-24 02:52:00,17.0,7.0,-100.00,SSW,210,7.0,17.0,62,-99.99,,,-99.99,,2013-04-24 08:52:00,
2013-04-24 03:02:00,17.0,6.0,-100.00,SSW,205,7.0,16.0,61,-99.99,,,-99.99,,2013-04-24 09:02:00,
2013-04-24 03:11:00,17.0,6.0,-100.00,SSW,205,7.0,16.0,61,-99.99,,,-99.99,,2013-04-24 09:11:00,
2013-04-24 03:21:00,17.0,6.0,-100.00,SSW,205,9.0,17.0,60,-99.99,,,-99.99,,2013-04-24 09:21:00,
2013-04-24 03:33:00,17.0,6.0,-100.00,SSW,205,9.0,17.0,60,-99.99,,,-99.99,,2013-04-24 09:33:00,
2013-04-24 03:42:00,17.0,6.0,-100.00,SSW,200,6.0,19.0,59,-99.99,,,-99.99,,2013-04-24 09:42:00,
2013-04-24 03:53:00,17.0,6.0,-100.00,SSW,200,6.0,19.0,59,-99.99,,,-99.99,,2013-04-24 09:53:00,
2013-04-24 04:02:00,18.0,6.0,-100.00,SSW,195,4.0,16.0,58,-99.99,,,-99.99,,2013-04-24 10:02:00,
2013-04-24 04:12:00,18.0,6.0,-100.00,SSW,195,4.0,16.0,58,-99.99,,,-99.99,,2013-04-24 10:12:00,
2013-04-24 04:22:00,18.0,5.0,-100.00,South,190,4.0,15.0,57,-99.99,,,-99.99,,2013-04-24 10:22:00,
2013-04-24 04:32:00,18.0,5.0,-100.00,South,190,4.0,15.0,57,-99.99,,,-99.99,,2013-04-24 10:32:00,
2013-04-24 04:42:00,17.0,5.0,-100.00,South,190,5.0,11.0,57,-99.99,,,-99.99,,2013-04-24 10:42:00,
2013-04-24 04:53:00,17.0,5.0,-100.00,South,190,5.0,11.0,57,-99.99,,,-99.99,,2013-04-24 10:53:00,
2013-04-24 05:02:00,18.0,5.0,-100.00,South,185,4.0,10.0,56,-99.99,,,-99.99,,2013-04-24 11:02:00,
2013-04-24 05:11:00,18.0,5.0,-100.00,South,185,4.0,10.0,56,-99.99,,,-99.99,,2013-04-24 11:11:00,
2013-04-24 05:21:00,18.0,5.0,-100.00,South,190,4.0,13.0,57,-99.99,,,-99.99,,2013-04-24 11:21:00,
2013-04-24 05:32:00,18.0,5.0,-100.00,South,190,4.0,13.0,57,-99.99,,,-99.99,,2013-04-24 11:32:00,
2013-04-24 05:42:00,18.0,6.0,-100.00,SSW,200,7.0,17.0,59,-99.99,,,-99.99,,2013-04-24 11:42:00,
2013-04-24 05:52:00,18.0,6.0,-100.00,SSW,200,7.0,17.0,59,-99.99,,,-99.99,,2013-04-24 11:52:00,
2013-04-24 06:02:00,18.0,7.0,-100.00,SSW,205,7.0,-999.0,61,-99.99,,,-99.99,,2013-04-24 12:02:00,
2013-04-24 06:11:00,18.0,7.0,-100.00,SSW,205,7.0,-999.0,61,-99.99,,,-99.99,,2013-04-24 12:11:00,
2013-04-24 06:22:00,18.0,7.0,-100.00,SSW,210,7.0,17.0,62,-99.99,,,-99.99,,2013-04-24 12:22:00,
2013-04-24 06:32:00,18.0,7.0,-100.00,SSW,210,7.0,17.0,62,-99.99,,,-99.99,,2013-04-24 12:32:00,
2013-04-24 06:42:00,18.0,7.0,-100.00,SSW,210,7.0,17.0,62,-99.99,,,-99.99,,2013-04-24 12:42:00,
2013-04-24 06:52:00,18.0,7.0,-100.00,SSW,210,7.0,17.0,62,-99.99,,,-99.99,,2013-04-24 12:52:00,
2013-04-24 07:01:00,19.0,8.0,-100.00,SSW,210,6.0,14.0,62,-99.99,,,-99.99,,2013-04-24 13:01:00,
2013-04-24 07:12:00,19.0,8.0,-100.00,SSW,210,6.0,14.0,62,-99.99,,,-99.99,,2013-04-24 13:12:00,
2013-04-24 07:22:00,19.0,8.0,-100.00,SSW,205,9.0,17.0,61,-99.99,,,-99.99,,2013-04-24 13:22:00,
2013-04-24 07:32:00,19.0,8.0,-100.00,SSW,205,9.0,17.0,61,-99.99,,,-99.99,,2013-04-24 13:32:00,
2013-04-24 07:41:00,22.0,10.0,-100.00,South,190,11.0,21.0,57,-99.99,,,-99.99,,2013-04-24 13:41:00,
2013-04-24 07:52:00,22.0,10.0,-100.00,South,190,11.0,21.0,57,-99.99,,,-99.99,,2013-04-24 13:52:00,
2013-04-24 08:01:00,24.0,10.0,-100.00,South,180,9.0,22.0,55,-99.99,,,-99.99,,2013-04-24 14:01:00,
2013-04-24 08:11:00,24.0,10.0,-100.00,South,180,9.0,22.0,55,-99.99,,,-99.99,,2013-04-24 14:11:00,
2013-04-24 08:21:00,24.0,10.0,-100.00,South,180,9.0,24.0,54,-99.99,,,-99.99,,2013-04-24 14:21:00,
2013-04-24 08:32:00,24.0,10.0,-100.00,South,180,9.0,24.0,54,-99.99,,,-99.99,,2013-04-24 14:32:00,
2013-04-24 08:41:00,24.0,12.0,-100.00,South,190,9.0,21.0,58,-99.99,,,-99.99,,2013-04-24 14:41:00,
2013-04-24 08:52:00,24.0,12.0,-100.00,South,190,9.0,21.0,58,-99.99,,,-99.99,,2013-04-24 14:52:00,
2013-04-24 09:01:00,25.0,12.0,-100.00,South,190,7.0,22.0,57,-99.99,,,-99.99,,2013-04-24 15:01:00,
2013-04-24 09:11:00,25.0,12.0,-100.00,South,190,7.0,22.0,57,-99.99,,,-99.99,,2013-04-24 15:11:00,
2013-04-24 09:21:00,26.0,12.0,-100.00,South,180,10.0,19.0,54,-99.99,,,-99.99,,2013-04-24 15:21:00,
2013-04-24 09:33:00,26.0,12.0,-100.00,South,180,10.0,19.0,54,-99.99,,,-99.99,,2013-04-24 15:33:00,
2013-04-24 09:43:00,26.0,13.0,-100.00,South,190,9.0,26.0,57,-99.99,,,-99.99,,2013-04-24 15:43:00,
2013-04-24 09:53:00,26.0,13.0,-100.00,South,190,9.0,26.0,57,-99.99,,,-99.99,,2013-04-24 15:53:00,
2013-04-24 10:03:00,27.0,13.0,-100.00,South,185,9.0,21.0,56,-99.99,,,-99.99,,2013-04-24 16:03:00,
2013-04-24 10:12:00,27.0,13.0,-100.00,South,185,9.0,21.0,56,-99.99,,,-99.99,,2013-04-24 16:12:00,
2013-04-24 10:23:00,27.0,12.0,-100.00,South,175,12.0,32.0,54,-99.99,,,-99.99,,2013-04-24 16:23:00,
2013-04-24 10:32:00,27.0,12.0,-100.00,South,175,12.0,32.0,54,-99.99,,,-99.99,,2013-04-24 16:32:00,
2013-04-24 10:42:00,28.0,13.0,-100.00,North,-999,-999.0,-999.0,51,-99.99,,,-99.99,,2013-04-24 16:42:00,
2013-04-24 10:52:00,28.0,13.0,-100.00,North,-999,-999.0,-999.0,51,-99.99,,,-99.99,,2013-04-24 16:52:00,
2013-04-24 11:02:00,30.0,13.0,-100.00,SSE,155,7.0,24.0,49,-99.99,,,-99.99,,2013-04-24 17:02:00,
2013-04-24 11:12:00,30.0,13.0,-100.00,SSE,155,7.0,24.0,49,-99.99,,,-99.99,,2013-04-24 17:12:00,
2013-04-24 11:22:00,33.0,14.0,-100.00,SE,145,5.0,23.0,46,-99.99,,,-99.99,,2013-04-24 17:22:00,
2013-04-24 11:32:00,33.0,14.0,-100.00,SE,145,5.0,23.0,46,-99.99,,,-99.99,,2013-04-24 17:32:00,
2013-04-24 11:42:00,33.0,14.0,-100.00,SE,145,5.0,23.0,46,-99.99,,,-99.99,,2013-04-24 17:42:00,
2013-04-24 11:52:00,33.0,14.0,-100.00,SE,145,5.0,23.0,46,-99.99,,,-99.99,,2013-04-24 17:52:00,
2013-04-24 12:02:00,34.0,13.0,-100.00,SE,130,9.0,25.0,42,-99.99,,,-99.99,,2013-04-24 18:02:00,
2013-04-24 12:12:00,34.0,13.0,-100.00,SE,130,9.0,25.0,42,-99.99,,,-99.99,,2013-04-24 18:12:00,
2013-04-24 12:22:00,35.0,14.0,-100.00,SE,125,8.0,16.0,41,-99.99,,,-99.99,,2013-04-24 18:22:00,
2013-04-24 12:33:00,35.0,14.0,-100.00,SE,125,8.0,16.0,41,-99.99,,,-99.99,,2013-04-24 18:33:00,
2013-04-24 12:42:00,32.0,11.0,-100.00,SE,125,14.0,24.0,41,-99.99,,,-99.99,,2013-04-24 18:42:00,
2013-04-24 12:52:00,32.0,11.0,-100.00,SE,125,14.0,24.0,41,-99.99,,,-99.99,,2013-04-24 18:52:00,
2013-04-24 13:02:00,34.0,12.0,-100.00,ESE,120,7.0,19.0,39,-99.99,,,-99.99,,2013-04-24 19:02:00,
2013-04-24 13:11:00,34.0,12.0,-100.00,ESE,120,7.0,19.0,39,-99.99,,,-99.99,,2013-04-24 19:11:00,
2013-04-24 13:21:00,33.0,11.0,-100.00,SE,125,11.0,22.0,41,-99.99,,,-99.99,,2013-04-24 19:21:00,
2013-04-24 13:32:00,33.0,11.0,-100.00,SE,125,11.0,22.0,41,-99.99,,,-99.99,,2013-04-24 19:32:00,
2013-04-24 13:42:00,37.0,13.0,-100.00,ESE,110,7.0,18.0,37,-99.99,,,-99.99,,2013-04-24 19:42:00,
2013-04-24 13:52:00,37.0,13.0,-100.00,ESE,110,7.0,18.0,37,-99.99,,,-99.99,,2013-04-24 19:52:00,
2013-04-24 14:02:00,35.0,11.0,-100.00,ESE,105,9.0,19.0,36,-99.99,,,-99.99,,2013-04-24 20:02:00,
2013-04-24 14:11:00,35.0,11.0,-100.00,ESE,105,9.0,19.0,36,-99.99,,,-99.99,,2013-04-24 20:11:00,
2013-04-24 14:22:00,35.0,11.0,-100.00,ESE,105,6.0,21.0,35,-99.99,,,-99.99,,2013-04-24 20:22:00,
2013-04-24 14:32:00,35.0,11.0,-100.00,ESE,105,6.0,21.0,35,-99.99,,,-99.99,,2013-04-24 20:32:00,
2013-04-24 14:42:00,35.0,10.0,-100.00,East,100,16.0,-999.0,35,-99.99,,,-99.99,,2013-04-24 20:42:00,
2013-04-24 14:52:00,35.0,10.0,-100.00,East,100,16.0,-999.0,35,-99.99,,,-99.99,,2013-04-24 20:52:00,
2013-04-24 15:02:00,36.0,12.0,-100.00,ESE,105,7.0,20.0,35,-99.99,,,-99.99,,2013-04-24 21:02:00,
2013-04-24 15:11:00,36.0,12.0,-100.00,ESE,105,7.0,20.0,35,-99.99,,,-99.99,,2013-04-24 21:11:00,
2013-04-24 15:21:00,36.0,11.0,-100.00,East,100,9.0,20.0,35,-99.99,,,-99.99,,2013-04-24 21:21:00,
2013-04-24 15:33:00,36.0,11.0,-100.00,East,100,9.0,20.0,35,-99.99,,,-99.99,,2013-04-24 21:33:00,
2013-04-24 15:42:00,37.0,12.0,-100.00,East,100,8.0,18.0,35,-99.99,,,-99.99,,2013-04-24 21:42:00,
2013-04-24 15:52:00,37.0,12.0,-100.00,East,100,8.0,18.0,35,-99.99,,,-99.99,,2013-04-24 21:52:00,
2013-04-24 16:03:00,36.0,10.0,-100.00,East,95,4.0,17.0,33,-99.99,,,-99.99,,2013-04-24 22:03:00,
2013-04-24 16:12:00,36.0,10.0,-100.00,East,95,4.0,17.0,33,-99.99,,,-99.99,,2013-04-24 22:12:00,
2013-04-24 16:22:00,36.0,10.0,-100.00,East,95,4.0,17.0,33,-99.99,,,-99.99,,2013-04-24 22:22:00,
2013-04-24 16:33:00,36.0,10.0,-100.00,East,95,4.0,17.0,33,-99.99,,,-99.99,,2013-04-24 22:33:00,
2013-04-24 16:42:00,37.0,10.0,-100.00,East,90,7.0,19.0,33,-99.99,,,-99.99,,2013-04-24 22:42:00,
2013-04-24 16:52:00,37.0,10.0,-100.00,East,90,7.0,19.0,33,-99.99,,,-99.99,,2013-04-24 22:52:00,
2013-04-24 17:02:00,39.0,11.0,-100.00,East,85,4.0,-999.0,31,-99.99,,,-99.99,,2013-04-24 23:02:00,
2013-04-24 17:12:00,39.0,11.0,-100.00,East,85,4.0,-999.0,31,-99.99,,,-99.99,,2013-04-24 23:12:00,
2013-04-24 17:21:00,39.0,11.0,-100.00,East,85,4.0,-999.0,31,-99.99,,,-99.99,,2013-04-24 23:21:00,
2013-04-24 17:32:00,39.0,11.0,-100.00,East,85,4.0,-999.0,31,-99.99,,,-99.99,,2013-04-24 23:32:00,
2013-04-24 17:42:00,37.0,11.0,-100.00,North,-999,-999.0,-999.0,32,-99.99,,,-99.99,,2013-04-24 23:42:00,
2013-04-24 17:52:00,37.0,11.0,-100.00,North,-999,-999.0,-999.0,32,-99.99,,,-99.99,,2013-04-24 23:52:00,
2013-04-24 18:02:00,36.0,9.0,-100.00,North,-999,-999.0,-999.0,32,-99.99,,,-99.99,,2013-04-25 00:02:00,
2013-04-24 18:12:00,36.0,9.0,-100.00,North,-999,-999.0,-999.0,32,-99.99,,,-99.99,,2013-04-25 00:12:00,
2013-04-24 18:22:00,35.0,9.0,-100.00,East,90,6.0,17.0,32,-99.99,,,-99.99,,2013-04-25 00:22:00,
2013-04-24 18:32:00,35.0,9.0,-100.00,East,90,6.0,17.0,32,-99.99,,,-99.99,,2013-04-25 00:32:00,
2013-04-24 18:42:00,35.0,9.0,-100.00,East,95,7.0,-999.0,33,-99.99,,,-99.99,,2013-04-25 00:42:00,
2013-04-24 18:52:00,35.0,9.0,-100.00,East,95,7.0,-999.0,33,-99.99,,,-99.99,,2013-04-25 00:52:00,
2013-04-24 19:01:00,33.0,8.0,-100.00,East,95,4.0,12.0,34,-99.99,,,-99.99,,2013-04-25 01:01:00,
2013-04-24 19:11:00,33.0,8.0,-100.00,East,95,4.0,12.0,34,-99.99,,,-99.99,,2013-04-25 01:11:00,
2013-04-24 19:22:00,31.0,7.0,-100.00,ESE,105,7.0,13.0,35,-99.99,,,-99.99,,2013-04-25 01:22:00,
2013-04-24 19:32:00,31.0,7.0,-100.00,ESE,105,7.0,13.0,35,-99.99,,,-99.99,,2013-04-25 01:32:00,
2013-04-24 19:42:00,30.0,7.0,-100.00,ESE,105,3.0,9.0,36,-99.99,,,-99.99,,2013-04-25 01:42:00,
2013-04-24 19:52:00,30.0,7.0,-100.00,ESE,105,3.0,9.0,36,-99.99,,,-99.99,,2013-04-25 01:52:00,
2013-04-24 20:02:00,29.0,6.0,-100.00,ESE,110,4.0,6.0,37,-99.99,,,-99.99,,2013-04-25 02:02:00,
2013-04-24 20:11:00,29.0,6.0,-100.00,ESE,110,4.0,6.0,37,-99.99,,,-99.99,,2013-04-25 02:11:00,
2013-04-24 20:22:00,28.0,6.0,-100.00,ESE,115,6.0,11.0,38,-99.99,,,-99.99,,2013-04-25 02:22:00,
2013-04-24 20:32:00,28.0,6.0,-100.00,ESE,115,6.0,11.0,38,-99.99,,,-99.99,,2013-04-25 02:32:00,
2013-04-24 20:42:00,28.0,6.0,-100.00,ESE,115,6.0,11.0,38,-99.99,,,-99.99,,2013-04-25 02:42:00,
2013-04-24 20:52:00,28.0,6.0,-100.00,ESE,115,6.0,11.0,38,-99.99,,,-99.99,,2013-04-25 02:52:00,
2013-04-24 21:02:00,28.0,6.0,-100.00,ESE,115,3.0,10.0,38,-99.99,,,-99.99,,2013-04-25 03:02:00,
2013-04-24 21:11:00,28.0,6.0,-100.00,ESE,115,3.0,10.0,38,-99.99,,,-99.99,,2013-04-25 03:11:00,
2013-04-24 21:22:00,27.0,5.0,-100.00,ESE,115,2.0,11.0,38,-99.99,,,-99.99,,2013-04-25 03:22:00,
2013-04-24 21:33:00,27.0,5.0,-100.00,ESE,115,2.0,11.0,38,-99.99,,,-99.99,,2013-04-25 03:33:00,
2013-04-24 21:42:00,26.0,4.0,-100.00,ESE,120,2.0,3.0,39,-99.99,,,-99.99,,2013-04-25 03:42:00,
2013-04-24 21:52:00,26.0,4.0,-100.00,ESE,120,2.0,3.0,39,-99.99,,,-99.99,,2013-04-25 03:52:00,
2013-04-24 22:03:00,24.0,4.0,-100.00,SE,125,1.0,3.0,40,-99.99,,,-99.99,,2013-04-25 04:03:00,
2013-04-24 22:12:00,24.0,4.0,-100.00,SE,125,1.0,3.0,40,-99.99,,,-99.99,,2013-04-25 04:12:00,
2013-04-24 22:22:00,25.0,4.0,-100.00,ESE,120,1.0,5.0,40,-99.99,,,-99.99,,2013-04-25 04:22:00,
2013-04-24 22:32:00,25.0,4.0,-100.00,ESE,120,1.0,5.0,40,-99.99,,,-99.99,,2013-04-25 04:32:00,
2013-04-24 22:43:00,23.0,3.0,-100.00,SE,130,4.0,6.0,42,-99.99,,,-99.99,,2013-04-25 04:43:00,
2013-04-24 22:52:00,23.0,3.0,-100.00,SE,130,4.0,6.0,42,-99.99,,,-99.99,,2013-04-25 04:52:00,
2013-04-24 23:02:00,24.0,4.0,-100.00,SE,125,4.0,5.0,41,-99.99,,,-99.99,,2013-04-25 05:02:00,
2013-04-24 23:12:00,24.0,4.0,-100.00,SE,125,4.0,5.0,41,-99.99,,,-99.99,,2013-04-25 05:12:00,
2013-04-24 23:21:00,23.0,4.0,-100.00,SE,130,3.0,6.0,43,-99.99,,,-99.99,,2013-04-25 05:21:00,
2013-04-24 23:32:00,23.0,4.0,-100.00,SE,130,3.0,6.0,43,-99.99,,,-99.99,,2013-04-25 05:32:00,
2013-04-24 23:42:00,24.0,4.0,-100.00,SE,130,3.0,6.0,41,-99.99,,,-99.99,,2013-04-25 05:42:00,
2013-04-24 23:52:00,24.0,4.0,-100.00,SE,130,3.0,6.0,41,-99.99,,,-99.99,,2013-04-25 05:52:00,